| time (UTC) | temp F | wind direction | speed knots | gust knots | rain 1hr in | rain 24hr in | rain mn in | humidity % | barometer mb |
| 20260504214544 | 77 | 221 | 3.5 | 9.6 | 0.00 | 0.00 | 0.00 | 31 | 1014.0 |
| 20260504213101 | 77 | 193 | 0.9 | 8.7 | 0.00 | 0.00 | 0.00 | 32 | 1013.8 |
| 20260504211544 | 77 | 216 | 1.7 | 7.8 | 0.00 | 0.00 | 0.00 | 32 | 1013.8 |
| 20260504210043 | 78 | 207 | 2.6 | 9.6 | 0.00 | 0.00 | 0.00 | 32 | 1013.8 |
| 20260504204545 | 79 | 0 | 0.0 | 5.2 | 0.00 | 0.00 | 0.00 | 31 | 1013.9 |
| 20260504203048 | 78 | 185 | 0.9 | 6.1 | 0.00 | 0.00 | 0.00 | 32 | 1014.0 |
| 20260504201547 | 78 | 200 | 0.9 | 6.1 | 0.00 | 0.00 | 0.00 | 32 | 1014.1 |
| 20260504200053 | 78 | 254 | 0.0 | 6.1 | 0.00 | 0.00 | 0.00 | 33 | 1014.3 |
| 20260504194556 | 79 | 216 | 1.7 | 6.1 | 0.00 | 0.00 | 0.00 | 32 | 1014.6 |
| 20260504193103 | 78 | 279 | 0.9 | 8.7 | 0.00 | 0.00 | 0.00 | 34 | 1014.7 |
| 20260504191549 | 77 | 219 | 0.0 | 7.0 | 0.00 | 0.00 | 0.00 | 34 | 1015.0 |
| 20260504190053 | 77 | 225 | 1.7 | 5.2 | 0.00 | 0.00 | 0.00 | 33 | 1015.3 |
| 20260504184551 | 78 | 325 | 0.0 | 7.8 | 0.00 | 0.00 | 0.00 | 32 | 1015.5 |
| 20260504183057 | 77 | 18 | 0.0 | 7.8 | 0.00 | 0.00 | 0.00 | 34 | 1015.4 |
| 20260504181551 | 75 | 188 | 0.9 | 4.3 | 0.00 | 0.00 | 0.00 | 37 | 1015.5 |
| 20260504180130 | 75 | 303 | 0.9 | 7.8 | 0.00 | 0.00 | 0.00 | 36 | 1015.7 |
| 20260504174550 | 75 | 303 | 0.9 | 4.3 | 0.00 | 0.00 | 0.00 | 35 | 1015.9 |
| 20260504173050 | 75 | 355 | 0.9 | 5.2 | 0.00 | 0.00 | 0.00 | 35 | 1015.8 |
| 20260504171552 | 74 | 207 | 0.9 | 5.2 | 0.00 | 0.00 | 0.00 | 34 | 1015.9 |
| 20260504120105 | 48 | 0 | 0.0 | 0.0 | 0.00 | 0.00 | 0.00 | 81 | 1017.6 |
| 20260504081553 | 45 | 0 | 0.0 | 0.0 | 0.00 | 0.00 | 0.00 | 76 | 1017.3 |
| 20260504044546 | 52 | 0 | 0.0 | 0.9 | 0.00 | 0.00 | 0.00 | 54 | 1017.5 |
| 20260504043059 | 52 | 0 | 0.0 | 0.9 | 0.00 | 0.00 | 0.00 | 56 | 1017.4 |
| 20260504041549 | 51 | 0 | 0.0 | 0.9 | 0.00 | 0.00 | 0.00 | 62 | 1017.6 |
| 20260504034558 | 50 | 0 | 0.0 | 0.9 | 0.00 | 0.00 | 0.00 | 61 | 1017.5 |
| 20260504033043 | 50 | 0 | 0.0 | 0.0 | 0.00 | 0.00 | 0.00 | 62 | 1017.5 |
| 20260504031601 | 50 | 0 | 0.0 | 0.0 | 0.00 | 0.00 | 0.00 | 59 | 1017.6 |
| 20260504030050 | 51 | 0 | 0.0 | 0.0 | 0.00 | 0.00 | 0.00 | 67 | 1017.7 |
| 20260504024544 | 52 | 0 | 0.0 | 0.0 | 0.00 | 0.00 | 0.00 | 57 | 1017.6 |
| 20260504023050 | 53 | 0 | 0.0 | 0.0 | 0.00 | 0.00 | 0.00 | 56 | 1017.4 |
| 20260504021557 | 54 | 0 | 0.0 | 0.0 | 0.00 | 0.00 | 0.00 | 52 | 1017.2 |
| 20260504014553 | 55 | 0 | 0.0 | 0.9 | 0.00 | 0.00 | 0.00 | 48 | 1016.7 |
| 20260504013048 | 55 | 0 | 0.0 | 0.0 | 0.00 | 0.00 | 0.00 | 50 | 1016.8 |
| 20260504011547 | 55 | 0 | 0.0 | 0.0 | 0.00 | 0.00 | 0.00 | 47 | 1016.8 |
| 20260504010051 | 56 | 0 | 0.0 | 0.9 | 0.00 | 0.00 | 0.00 | 47 | 1016.6 |
| 20260504004549 | 58 | 0 | 0.0 | 0.0 | 0.00 | 0.00 | 0.00 | 43 | 1016.5 |
| 20260504003059 | 59 | 0 | 0.0 | 0.0 | 0.00 | 0.00 | 0.00 | 41 | 1016.4 |
| 20260504001556 | 60 | 0 | 0.0 | 0.9 | 0.00 | 0.00 | 0.00 | 38 | 1016.3 |
| 20260503234554 | 62 | 0 | 0.0 | 0.9 | 0.00 | 0.00 | 0.00 | 34 | 1016.2 |
| 20260503233057 | 63 | 0 | 0.0 | 2.6 | 0.00 | 0.00 | 0.00 | 33 | 1016.3 |
| 20260503231553 | 63 | 210 | 0.0 | 2.6 | 0.00 | 0.00 | 0.00 | 32 | 1016.2 |
| 20260503230108 | 63 | 0 | 0.0 | 4.3 | 0.00 | 0.00 | 0.00 | 31 | 1016.2 |
| 20260503224558 | 64 | 200 | 0.0 | 2.6 | 0.00 | 0.00 | 0.00 | 30 | 1016.2 |
| 20260503223048 | 64 | 216 | 0.0 | 1.7 | 0.00 | 0.00 | 0.00 | 33 | 1016.5 |
| 20260503221601 | 64 | 0 | 0.9 | 9.6 | 0.00 | 0.00 | 0.00 | 28 | 1016.7 |
| 20260503220053 | 64 | 214 | 0.9 | 4.3 | 0.00 | 0.00 | 0.00 | 27 | 1016.8 |